Janesville, WI

2:22 AM CST on February 20, 2018 (GMT -0600)
Rock County

Weather History for KJVL - August, 2014

Change the Weather History Date:

Monday, August 11, 2014

  Actual Average Record
Temperature  
Mean Temperature 73 °F -  
Max Temperature 82 °F 76 °F 95 °F (2002)
Min Temperature 64 °F 56 °F 51 °F (2004)
Cooling Degree Days 8    
Growing Degree Days 23 (Base 50)    
Moisture  
Dew Point 61 °F    
Average Humidity 75    
Maximum Humidity 94    
Minimum Humidity 42    
Precipitation  
Precipitation 0.00 in - - ()
Sea Level Pressure  
Sea Level Pressure 29.91 in    
Wind  
Wind Speed 2 mph (NNW)    
Max Wind Speed 17 mph    
Max Gust Speed 16 mph    
Visibility 9 miles    
Events      
Averages and records for this station are not official NWS values.
T = Trace of Precipitation, MM = Missing Value Source: NWS Daily Summary

Daily Weather History Graph

Daily Weather History Graph

Search for Another Location

Airport or City:

Trip Planner

Search our weather history database for the weather conditions in past years. The results will help you decide how hot, cold, wet, or windy it might be!

Date:

Astronomy

Aug. 11, 2014 Rise Set
Actual Time 5:58 AM CDT 8:03 PM CDT
Civil Twilight 5:27 AM CDT 8:34 PM CDT
Nautical Twilight 4:49 AM CDT 9:11 PM CDT
Astronomical Twilight 4:08 AM CDT 9:53 PM CDT
Moon 8:28 PM CDT (8/11) 7:06 AM CDT (8/11)
Length of Visible Light 15h 06m
Length of Day
14h 04m
Full, 99% of the Moon is Illuminated
Aug 11
Full
Aug 17
Last Quarter
Aug 25
New
Sep 2
First Quarter
Sep 8
Full

Hourly Weather History & Observations

Time (CDT) Temp. Heat Index Dew Point Humidity Pressure Visibility Wind Dir Wind Speed Gust Speed Precip Events Conditions
12:15 AM 68.0 °F - 60.8 °F 78% 29.99 in 10.0 mi Calm Calm - N/A   Scattered Clouds
12:35 AM 68.0 °F - 60.8 °F 78% 29.98 in 10.0 mi Calm Calm - N/A   Mostly Cloudy
12:55 AM 68.0 °F - 59.0 °F 73% 29.98 in 10.0 mi Calm Calm - N/A   Mostly Cloudy
1:15 AM 68.0 °F - 59.0 °F 73% 29.97 in 10.0 mi Calm Calm - N/A   Clear
1:35 AM 68.0 °F - 59.0 °F 73% 29.96 in 10.0 mi Calm Calm - N/A   Clear
1:55 AM 66.2 °F - 59.0 °F 78% 29.96 in 10.0 mi Calm Calm - N/A   Clear
2:15 AM 66.2 °F - 60.8 °F 83% 29.95 in 10.0 mi NE 3.5 mph - N/A   Clear
2:35 AM 64.4 °F - 59.0 °F 83% 29.95 in 10.0 mi ENE 3.5 mph - N/A   Clear
2:55 AM 64.4 °F - 60.8 °F 88% 29.94 in 10.0 mi Calm Calm - N/A   Clear
3:15 AM 66.2 °F - 59.0 °F 78% 29.95 in 10.0 mi Calm Calm - N/A   Clear
3:35 AM 64.4 °F - 59.0 °F 83% 29.95 in 10.0 mi Calm Calm - N/A   Clear
3:55 AM 64.4 °F - 60.8 °F 88% 29.94 in 10.0 mi ENE 3.5 mph - N/A   Clear
4:15 AM 64.4 °F - 60.8 °F 88% 29.94 in 10.0 mi Calm Calm - N/A   Scattered Clouds
4:35 AM 64.4 °F - 60.8 °F 88% 29.94 in 10.0 mi Calm Calm - N/A   Scattered Clouds
4:55 AM 64.4 °F - 60.8 °F 88% 29.94 in 10.0 mi Calm Calm - N/A   Clear
5:15 AM 66.2 °F - 60.8 °F 83% 29.94 in 10.0 mi NNE 3.5 mph - N/A   Clear
5:35 AM 64.4 °F - 60.8 °F 88% 29.94 in 10.0 mi Calm Calm - N/A   Clear
5:45 AM 64.4 °F - 62.6 °F 94% 29.94 in 5.0 mi Calm Calm - N/A   Clear
6:45 AM 64.4 °F - 62.6 °F 94% 29.93 in 4.0 mi Calm Calm - N/A   Clear
7:45 AM 66.2 °F - 62.6 °F 88% 29.93 in 4.0 mi Calm Calm - N/A   Scattered Clouds
9:45 AM 73.4 °F - 64.4 °F 73% 29.90 in 10.0 mi WNW 5.8 mph - N/A   Clear
11:45 AM 80.6 °F 81.5 °F 60.8 °F 51% 29.88 in 10.0 mi Variable 6.9 mph - N/A   Scattered Clouds
12:45 PM 80.6 °F 81.5 °F 60.8 °F 51% 29.88 in 10.0 mi WNW 9.2 mph - N/A   Mostly Cloudy
1:45 PM 82.4 °F 82.5 °F 59.0 °F 45% 29.86 in 10.0 mi NNW 8.1 mph - N/A   Mostly Cloudy
2:45 PM 82.4 °F 82.0 °F 57.2 °F 42% 29.84 in 10.0 mi West 8.1 mph - N/A   Mostly Cloudy
3:45 PM 82.4 °F 82.9 °F 60.8 °F 48% 29.82 in 10.0 mi WSW 8.1 mph - N/A   Mostly Cloudy
6:45 PM 77.0 °F - 62.6 °F 61% 29.80 in 10.0 mi WNW 17.3 mph - N/A   Mostly Cloudy
7:45 PM 73.4 °F - 62.6 °F 69% 29.80 in 10.0 mi WNW 11.5 mph - N/A   Overcast
8:45 PM 71.6 °F - 62.6 °F 73% 29.81 in 10.0 mi NW 17.3 mph - N/A   Overcast
9:15 PM 69.8 °F - 60.8 °F 73% 29.83 in 10.0 mi NNW 10.4 mph 16.1 mph N/A   Overcast